APRIZESAT 6 (37793 NORAD) Tracking and Keplerian Element Data

This shows tracking and keplerian element data for the satellite.

Feedback or suggestion? Click here.




ElementValue
Catalog37793
NameAPRIZESAT 6
Epoch Orbit38880
Epoch Day316.53513458
Epoch Year2018
RAAN102.1145
Inclination98.3605
Eccentricity0.0045856
Argument of Perigee247.1298
Mean Anonmoly177.413
Mean Motion14.72345786
Decay Rate8.1E-07
L11 37793U 11044F 18316.53513458 .00000081 00000-0 21355-4 0 9991
L22 37793 98.3605 102.1145 0045856 247.1298 177.4130 14.72345786388804

Live tracking and technical data element details for APRIZESAT 6 (NORAD 37793). APRIZESAT 6 can be tracked NOW for your location showing map with azimuth and elevation plus other details from your city location.

Track the satellite on the map from your city or location and see movement details for azimuth, elevation, latitude, longitude, range, height, and movement on the map or in text.







IsCatalogInMostPopularTable: catalog: 37793, numindb: 46
Update: records affected: 1



GetName: 37793 APRIZESAT 6

Hit Count: updated at: Tue, 13 Nov 2018 22:24:19 GMT